COSMOS 2329

Satellite information

Favourite Embed

Satellite Type and Status

PAYLOADIN ORBIT

Key statistics

Satellite COSMOS 2329 at a glance.

Uptime

10891

Days in orbit

Revolutions

≈ 12.6

Per day

Orbit

LEO

Low Earth Orbit

Inclination

82.6

Latest

Satellite identification and parameters

Extended collection of information and parameters for COSMOS 2329.

Object identification

Identified? True

Debris? False

Object name: COSMOS 2329

International designator: 1996-009E

Object number (NORAD): 23791

Object ID (CCSDS): 23791

Country: COMMONWEALTH OF INDEPENDENT STATES (CIS)

Current information (Y/N): Y

RCS size: LARGE

Orbital parameters

Period: 114.132 minutes

Inclination: 82.5722 deg

SMA: 7794.074 km

Apoapsis: 1423.557 km

Periapsis: 1408.321 km

RAAN: 84.218 deg

Eccentricy: 0.00097741

Argument of periapsis: 124.2534 deg

Mean anomaly: 357.0235 deg

Mean motion: 12.6169967 rev/day

Mean motion (dot): 0.00000022 rev/day2

B* drag term: 0.000064849683 1/REarth

Two-line elements (TLE)

Creation date: Dec. 14, 2025, 3:07 a.m.

Reference frame: TEME

Reference center: EARTH

Epoch: Dec. 13, 2025, 3:20 p.m. UTC

TLE line 0: 0 COSMOS 2329

TLE line 1: 1 23791U 96009E 25347.63953124 .00000022 00000-0 64850-4 0 9991

TLE line 2: 2 23791 82.5722 84.2180 0009774 124.2534 357.0235 12.61699670372960

Live tracking on map

Real-time ground track for satellite COSMOS 2329.

In-orbit conjunctions

A list of the most updated potential collisions computed for object COSMOS 2329.

Target Orbit TCA Probability of collision Miss distance Type
COSMOS 411 LEO 2025-10-26 09:14:55 0.0004003395 142.0 (m) PAYLOAD
SL-8 R/B LEO 2024-10-15 17:46:55 0.02383389 16.0 (m) ROCKET BODY

Associated space launch

Gonets- satellite were the civilian derivate of the military Strela-3 satellite system. The Gonets system was offered to support international health organizations to meet their global communications needs for the transfer of medical data and records to remote sites. Strela-3 was the second generation of Russian strategic store-dump military communications satellite. Development of this generation to replace the first generation Strela-1M and Strela-2M satellites began in 1973.

COSMOS 2329 was lifted into orbit during the mission ‘Tsiklon-3 | Gonets-D 319 to 321 & Strela-3 113 to 115’, on board a Tsiklon-3 space rocket.

The launch took place on Feb. 19, 1996, 12:58 a.m. from 32/1.

For more information about the launch, click the button.

Launch to space Tsiklon-3 | Gonets-D 319 to 321 & Strela-3 113 to 115
Tsiklon-3 | Gonets-D 319 to 321 & Strela-3 113 to 115

Agency: N/A

Status: Launch Successful

Launch date: Feb. 19, 1996, 12:58 a.m. UTC

Rocket: Tsiklon-3

Launch pad: 32/1

Location: Plesetsk Cosmodrome, Russian Federation

...

Latest news about this satellite

There are no fresh news available about this satellite. Check back as we update our databases every day.


Newsletter sign-up

Weekly statistics, charts and insights to help you stay on top of the space industry.